N1011S KERI-KEDJ

Flight info

Callsign N1011S
Flight time 1h 52m
Altitude 4000
Route TACUN DJB ROD
Aircraft C82R/L-VGDW/C

Departure

Time 2026-05-06 04:05
Airport Erie International Tom Ridge Field (KERI)

Arrival

Time 2026-05-06 05:58
Airport Bellefontaine Regional Airport (KEDJ)
Time Latitude Longitude Altitude Speed Heading
2026-05-06 03:38 42.08101 -80.18511 735 ft 0 kts 224°
2026-05-06 03:54 42.08098 -80.18518 735 ft 3 kts 250°
2026-05-06 03:55 42.08130 -80.18502 735 ft 8 kts 62°
2026-05-06 03:55 42.08121 -80.18437 735 ft 7 kts 109°
2026-05-06 03:55 42.08107 -80.18376 735 ft 8 kts 104°
2026-05-06 03:55 42.08096 -80.18288 735 ft 11 kts 93°
2026-05-06 03:56 42.08093 -80.18179 734 ft 11 kts 93°
2026-05-06 03:56 42.08092 -80.18062 734 ft 13 kts 91°
2026-05-06 03:56 42.08092 -80.17937 735 ft 14 kts 89°
2026-05-06 03:56 42.08117 -80.17835 734 ft 10 kts 59°
2026-05-06 03:57 42.08153 -80.17761 734 ft 9 kts 56°
2026-05-06 03:57 42.08193 -80.17685 734 ft 12 kts 52°
2026-05-06 03:57 42.08246 -80.17588 734 ft 14 kts 54°
2026-05-06 03:57 42.08306 -80.17472 733 ft 16 kts 54°
2026-05-06 03:58 42.08376 -80.17345 732 ft 17 kts 54°
2026-05-06 03:58 42.08443 -80.17215 732 ft 16 kts 58°
2026-05-06 03:58 42.08501 -80.17100 731 ft 14 kts 55°
2026-05-06 03:58 42.08558 -80.16995 731 ft 14 kts 52°
2026-05-06 03:59 42.08610 -80.16897 731 ft 12 kts 54°
2026-05-06 03:59 42.08656 -80.16814 731 ft 11 kts 54°
2026-05-06 03:59 42.08703 -80.16724 731 ft 13 kts 53°
2026-05-06 03:59 42.08759 -80.16622 730 ft 14 kts 54°
2026-05-06 04:00 42.08822 -80.16516 730 ft 15 kts 53°
2026-05-06 04:00 42.08885 -80.16397 729 ft 16 kts 55°
2026-05-06 04:00 42.08954 -80.16267 729 ft 18 kts 54°
2026-05-06 04:00 42.09025 -80.16136 728 ft 17 kts 54°
2026-05-06 04:01 42.09083 -80.16022 728 ft 6 kts 66°
2026-05-06 04:01 42.09073 -80.15990 728 ft 2 kts 169°
2026-05-06 04:01 42.09071 -80.15989 728 ft 0 kts 169°
2026-05-06 04:03 42.09054 -80.15974 727 ft 6 kts 147°
2026-05-06 04:03 42.09007 -80.15934 727 ft 7 kts 170°
2026-05-06 04:03 42.08990 -80.15956 727 ft 0 kts 238°
2026-05-06 04:04 42.08985 -80.15966 727 ft 10 kts 246°
2026-05-06 04:04 42.08844 -80.16231 728 ft 60 kts 234°
2026-05-06 04:05 42.08537 -80.16768 879 ft 78 kts 231°
2026-05-06 04:05 42.08210 -80.17407 1108 ft 89 kts 243°
2026-05-06 04:05 42.07879 -80.18163 1397 ft 95 kts 236°
2026-05-06 04:05 42.07636 -80.18954 1819 ft 83 kts 258°
2026-05-06 04:06 42.07552 -80.19694 2088 ft 83 kts 260°
2026-05-06 04:06 42.07576 -80.20502 2240 ft 94 kts 295°
2026-05-06 04:06 42.07846 -80.21323 2433 ft 99 kts 275°
2026-05-06 04:06 42.07796 -80.22248 2644 ft 102 kts 266°
2026-05-06 04:07 42.07733 -80.23210 2855 ft 104 kts 265°
2026-05-06 04:07 42.07653 -80.24197 3058 ft 108 kts 264°
2026-05-06 04:07 42.07564 -80.25216 3214 ft 112 kts 264°
2026-05-06 04:07 42.07468 -80.26269 3372 ft 114 kts 263°
2026-05-06 04:08 42.07368 -80.27334 3525 ft 114 kts 262°
2026-05-06 04:08 42.07269 -80.28382 3679 ft 114 kts 261°
2026-05-06 04:08 42.07170 -80.29439 3836 ft 113 kts 261°
2026-05-06 04:08 42.07070 -80.30489 3983 ft 113 kts 261°
2026-05-06 04:09 42.06967 -80.31566 3991 ft 121 kts 261°
2026-05-06 04:09 42.06857 -80.32728 4001 ft 127 kts 261°
2026-05-06 04:09 42.06744 -80.33928 4000 ft 130 kts 261°
2026-05-06 04:09 42.06629 -80.35135 4003 ft 132 kts 261°
2026-05-06 04:10 42.06511 -80.36373 4001 ft 133 kts 261°
2026-05-06 04:10 42.06393 -80.37613 4001 ft 133 kts 261°
2026-05-06 04:10 42.06276 -80.38834 4001 ft 133 kts 261°
2026-05-06 04:10 42.06157 -80.40074 4003 ft 133 kts 261°
2026-05-06 04:11 42.06038 -80.41316 4004 ft 133 kts 261°
2026-05-06 04:11 42.05919 -80.42552 4003 ft 133 kts 261°
2026-05-06 04:11 42.05802 -80.43772 4004 ft 132 kts 261°
2026-05-06 04:11 42.05724 -80.44584 4005 ft 132 kts 261°
2026-05-06 04:12 42.05567 -80.46209 4008 ft 132 kts 261°
2026-05-06 04:12 42.05450 -80.47429 4005 ft 130 kts 261°
2026-05-06 04:12 42.05372 -80.48230 4008 ft 130 kts 261°
2026-05-06 04:12 42.05255 -80.49440 4005 ft 130 kts 261°
2026-05-06 04:13 42.04976 -80.50582 3990 ft 131 kts 242°
2026-05-06 04:13 42.04523 -80.51642 3989 ft 130 kts 242°
2026-05-06 04:13 42.04088 -80.52697 3990 ft 131 kts 242°
2026-05-06 04:13 42.03649 -80.53774 3989 ft 131 kts 242°
2026-05-06 04:14 42.03216 -80.54838 3997 ft 127 kts 243°
2026-05-06 04:14 42.02795 -80.55874 3998 ft 124 kts 242°
2026-05-06 04:14 42.02388 -80.56874 3993 ft 122 kts 242°
2026-05-06 04:14 42.01982 -80.57870 3998 ft 121 kts 243°
2026-05-06 04:15 42.01577 -80.58864 3995 ft 121 kts 242°
2026-05-06 04:15 42.01175 -80.59852 3996 ft 120 kts 243°
2026-05-06 04:15 42.00779 -80.60827 4000 ft 120 kts 243°
2026-05-06 04:15 42.00374 -80.61820 3996 ft 121 kts 242°
2026-05-06 04:16 41.99970 -80.62811 3996 ft 120 kts 242°
2026-05-06 04:16 41.99574 -80.63784 3999 ft 119 kts 243°
2026-05-06 04:16 41.99173 -80.64765 4004 ft 120 kts 243°
2026-05-06 04:16 41.98770 -80.65754 4004 ft 120 kts 243°
2026-05-06 04:17 41.98372 -80.66731 4000 ft 120 kts 243°
2026-05-06 04:17 41.97971 -80.67713 4001 ft 119 kts 243°
2026-05-06 04:17 41.97570 -80.68694 4001 ft 119 kts 243°
2026-05-06 04:17 41.97178 -80.69653 4003 ft 118 kts 244°
2026-05-06 04:18 41.96778 -80.70631 4003 ft 119 kts 243°
2026-05-06 04:18 41.96379 -80.71610 4001 ft 119 kts 243°
2026-05-06 04:18 41.95981 -80.72584 3999 ft 119 kts 243°
2026-05-06 04:18 41.95585 -80.73551 4003 ft 120 kts 243°
2026-05-06 04:19 41.95182 -80.74537 4000 ft 120 kts 243°
2026-05-06 04:19 41.94785 -80.75507 4005 ft 119 kts 242°
2026-05-06 04:19 41.94387 -80.76478 4010 ft 118 kts 242°
2026-05-06 04:19 41.93989 -80.77450 4005 ft 119 kts 243°
2026-05-06 04:20 41.93595 -80.78412 4004 ft 119 kts 243°
2026-05-06 04:20 41.93195 -80.79389 4005 ft 118 kts 243°
2026-05-06 04:20 41.92796 -80.80362 4004 ft 118 kts 242°
2026-05-06 04:20 41.92404 -80.81318 4006 ft 118 kts 243°
2026-05-06 04:21 41.92005 -80.82291 4003 ft 118 kts 243°
2026-05-06 04:21 41.91610 -80.83253 4003 ft 117 kts 243°
2026-05-06 04:21 41.91220 -80.84205 4002 ft 117 kts 242°
2026-05-06 04:21 41.90824 -80.85169 4003 ft 118 kts 243°
2026-05-06 04:22 41.90427 -80.86134 4004 ft 118 kts 242°
2026-05-06 04:22 41.90029 -80.87104 4004 ft 118 kts 243°
2026-05-06 04:22 41.89638 -80.88055 4005 ft 118 kts 243°
2026-05-06 04:23 41.88852 -80.89966 4004 ft 116 kts 242°
2026-05-06 04:23 41.88459 -80.90921 4000 ft 116 kts 243°
2026-05-06 04:23 41.88066 -80.91878 3999 ft 117 kts 243°
2026-05-06 04:23 41.87675 -80.92825 3999 ft 117 kts 243°
2026-05-06 04:24 41.87283 -80.93779 4001 ft 116 kts 243°
2026-05-06 04:24 41.86893 -80.94725 3995 ft 115 kts 243°
2026-05-06 04:24 41.86508 -80.95658 3990 ft 115 kts 242°
2026-05-06 04:24 41.86116 -80.96609 3992 ft 116 kts 242°
2026-05-06 04:25 41.85727 -80.97555 3993 ft 118 kts 242°
2026-05-06 04:25 41.85329 -80.98518 3992 ft 117 kts 242°
2026-05-06 04:25 41.84933 -80.99479 3994 ft 117 kts 242°
2026-05-06 04:25 41.84543 -81.00425 3994 ft 117 kts 242°
2026-05-06 04:26 41.84145 -81.01390 3994 ft 118 kts 242°
2026-05-06 04:26 41.83748 -81.02350 3993 ft 117 kts 242°
2026-05-06 04:26 41.83358 -81.03294 3995 ft 117 kts 242°
2026-05-06 04:26 41.82963 -81.04248 3993 ft 117 kts 243°
2026-05-06 04:27 41.82567 -81.05208 3990 ft 118 kts 242°
2026-05-06 04:27 41.82170 -81.06167 3996 ft 118 kts 243°
2026-05-06 04:27 41.81772 -81.07130 3998 ft 118 kts 242°
2026-05-06 04:27 41.81378 -81.08083 4000 ft 118 kts 242°
2026-05-06 04:28 41.80975 -81.09056 3997 ft 118 kts 242°
2026-05-06 04:28 41.80581 -81.10006 3999 ft 116 kts 242°
2026-05-06 04:28 41.80187 -81.10958 4000 ft 115 kts 242°
2026-05-06 04:28 41.79800 -81.11892 4002 ft 116 kts 242°
2026-05-06 04:29 41.79405 -81.12845 4000 ft 117 kts 242°
2026-05-06 04:29 41.79011 -81.13795 4002 ft 116 kts 242°
2026-05-06 04:29 41.78623 -81.14731 4004 ft 115 kts 242°
2026-05-06 04:29 41.78235 -81.15665 4003 ft 114 kts 243°
2026-05-06 04:30 41.77849 -81.16598 4006 ft 115 kts 242°
2026-05-06 04:30 41.77461 -81.17530 3998 ft 116 kts 242°
2026-05-06 04:30 41.77069 -81.18475 4000 ft 116 kts 242°
2026-05-06 04:30 41.76676 -81.19420 3992 ft 115 kts 242°
2026-05-06 04:31 41.76293 -81.20343 3999 ft 115 kts 242°
2026-05-06 04:31 41.75907 -81.21273 4001 ft 114 kts 241°
2026-05-06 04:31 41.75519 -81.22205 4001 ft 114 kts 242°
2026-05-06 04:31 41.75132 -81.23135 4000 ft 114 kts 242°
2026-05-06 04:32 41.74747 -81.24060 3999 ft 114 kts 242°
2026-05-06 04:32 41.74365 -81.24978 4001 ft 111 kts 242°
2026-05-06 04:32 41.73990 -81.25878 4002 ft 111 kts 242°
2026-05-06 04:32 41.73609 -81.26794 4002 ft 112 kts 242°
2026-05-06 04:33 41.73235 -81.27692 4001 ft 112 kts 242°
2026-05-06 04:33 41.72855 -81.28604 4002 ft 112 kts 242°
2026-05-06 04:33 41.72476 -81.29511 3999 ft 110 kts 242°
2026-05-06 04:33 41.72103 -81.30408 4004 ft 111 kts 242°
2026-05-06 04:34 41.71732 -81.31298 4003 ft 109 kts 242°
2026-05-06 04:34 41.71364 -81.32179 3999 ft 107 kts 242°
2026-05-06 04:34 41.71007 -81.33034 3996 ft 105 kts 242°
2026-05-06 04:34 41.70648 -81.33892 3993 ft 105 kts 242°
2026-05-06 04:35 41.70288 -81.34754 3987 ft 106 kts 242°
2026-05-06 04:35 41.69932 -81.35606 3990 ft 106 kts 242°
2026-05-06 04:35 41.69572 -81.36468 3991 ft 106 kts 242°
2026-05-06 04:35 41.69213 -81.37327 3992 ft 105 kts 242°
2026-05-06 04:36 41.68857 -81.38179 3994 ft 105 kts 242°
2026-05-06 04:36 41.68505 -81.39021 3991 ft 105 kts 242°
2026-05-06 04:36 41.68148 -81.39873 3995 ft 104 kts 242°
2026-05-06 04:36 41.67796 -81.40714 3999 ft 104 kts 242°
2026-05-06 04:37 41.67441 -81.41564 4002 ft 105 kts 242°
2026-05-06 04:37 41.67085 -81.42414 4002 ft 104 kts 242°
2026-05-06 04:37 41.66734 -81.43253 4003 ft 104 kts 241°
2026-05-06 04:37 41.66380 -81.44098 4000 ft 104 kts 242°
2026-05-06 04:38 41.66027 -81.44939 3999 ft 103 kts 242°
2026-05-06 04:38 41.65677 -81.45774 3999 ft 103 kts 242°
2026-05-06 04:38 41.65324 -81.46616 4002 ft 104 kts 242°
2026-05-06 04:38 41.64976 -81.47446 3999 ft 103 kts 242°
2026-05-06 04:39 41.64627 -81.48278 4000 ft 103 kts 242°
2026-05-06 04:39 41.64278 -81.49109 4011 ft 102 kts 241°
2026-05-06 04:39 41.63929 -81.49942 4011 ft 102 kts 241°
2026-05-06 04:39 41.63582 -81.50768 4011 ft 103 kts 242°
2026-05-06 04:40 41.63232 -81.51601 4011 ft 103 kts 242°
2026-05-06 04:40 41.62882 -81.52434 4010 ft 102 kts 242°
2026-05-06 04:40 41.62535 -81.53261 4010 ft 103 kts 242°
2026-05-06 04:40 41.62183 -81.54098 4011 ft 103 kts 242°
2026-05-06 04:41 41.61829 -81.54941 4013 ft 103 kts 242°
2026-05-06 04:41 41.61482 -81.55768 4013 ft 103 kts 242°
2026-05-06 04:41 41.61130 -81.56605 4012 ft 103 kts 242°
2026-05-06 04:41 41.60777 -81.57442 4014 ft 103 kts 242°
2026-05-06 04:42 41.60430 -81.58267 4014 ft 102 kts 242°
2026-05-06 04:42 41.60081 -81.59098 4018 ft 102 kts 242°
2026-05-06 04:42 41.59731 -81.59927 4014 ft 103 kts 242°
2026-05-06 04:42 41.59383 -81.60754 4012 ft 102 kts 242°
2026-05-06 04:43 41.59034 -81.61583 3998 ft 102 kts 242°
2026-05-06 04:43 41.58692 -81.62394 3991 ft 100 kts 242°
2026-05-06 04:43 41.58350 -81.63203 3991 ft 99 kts 242°
2026-05-06 04:43 41.58013 -81.64001 3994 ft 98 kts 242°
2026-05-06 04:44 41.57679 -81.64793 3994 ft 99 kts 242°
2026-05-06 04:44 41.57339 -81.65601 3993 ft 100 kts 242°
2026-05-06 04:44 41.56998 -81.66409 3995 ft 99 kts 242°
2026-05-06 04:44 41.56661 -81.67205 3993 ft 99 kts 242°
2026-05-06 04:45 41.56322 -81.68009 3991 ft 99 kts 242°
2026-05-06 04:45 41.55987 -81.68802 3991 ft 97 kts 242°
2026-05-06 04:45 41.55657 -81.69582 3992 ft 95 kts 242°
2026-05-06 04:45 41.55331 -81.70354 3995 ft 96 kts 242°
2026-05-06 04:46 41.55005 -81.71125 3993 ft 96 kts 242°
2026-05-06 04:46 41.54674 -81.71909 3996 ft 97 kts 242°
2026-05-06 04:46 41.54339 -81.72700 3998 ft 97 kts 242°
2026-05-06 04:46 41.54009 -81.73480 3999 ft 97 kts 243°
2026-05-06 04:47 41.53674 -81.74273 3997 ft 98 kts 242°
2026-05-06 04:47 41.53343 -81.75056 3999 ft 98 kts 241°
2026-05-06 04:47 41.53008 -81.75845 3998 ft 97 kts 242°
2026-05-06 04:47 41.52676 -81.76629 3999 ft 97 kts 242°
2026-05-06 04:48 41.52341 -81.77421 4000 ft 98 kts 242°
2026-05-06 04:48 41.52007 -81.78209 3998 ft 98 kts 243°
2026-05-06 04:48 41.51667 -81.79010 3997 ft 99 kts 242°
2026-05-06 04:48 41.51333 -81.79801 3995 ft 98 kts 242°
2026-05-06 04:49 41.50997 -81.80593 3994 ft 97 kts 242°
2026-05-06 04:49 41.50662 -81.81381 3994 ft 97 kts 243°
2026-05-06 04:49 41.50334 -81.82155 3986 ft 97 kts 242°
2026-05-06 04:49 41.50001 -81.82938 3988 ft 98 kts 242°
2026-05-06 04:50 41.49658 -81.83749 3993 ft 102 kts 242°
2026-05-06 04:50 41.49307 -81.84578 3995 ft 104 kts 242°
2026-05-06 04:50 41.48947 -81.85426 3996 ft 105 kts 242°
2026-05-06 04:50 41.48590 -81.86266 3998 ft 103 kts 242°
2026-05-06 04:51 41.48238 -81.87093 3997 ft 103 kts 242°
2026-05-06 04:51 41.47883 -81.87929 3996 ft 104 kts 242°
2026-05-06 04:51 41.47532 -81.88751 3997 ft 103 kts 242°
2026-05-06 04:51 41.47179 -81.89583 3997 ft 103 kts 242°
2026-05-06 04:52 41.46825 -81.90416 4000 ft 104 kts 242°
2026-05-06 04:52 41.46468 -81.91254 3997 ft 104 kts 242°
2026-05-06 04:52 41.46110 -81.92095 4000 ft 104 kts 242°
2026-05-06 04:52 41.45757 -81.92926 4000 ft 104 kts 242°
2026-05-06 04:53 41.45398 -81.93769 3998 ft 104 kts 242°
2026-05-06 04:53 41.45044 -81.94599 4000 ft 104 kts 242°
2026-05-06 04:53 41.44686 -81.95440 3998 ft 104 kts 242°
2026-05-06 04:53 41.44327 -81.96281 3997 ft 104 kts 242°
2026-05-06 04:54 41.43975 -81.97109 3997 ft 104 kts 242°
2026-05-06 04:54 41.43618 -81.97944 3996 ft 103 kts 242°
2026-05-06 04:54 41.43260 -81.98781 3997 ft 103 kts 242°
2026-05-06 04:54 41.42905 -81.99613 3997 ft 103 kts 242°
2026-05-06 04:55 41.42553 -82.00438 3996 ft 103 kts 242°
2026-05-06 04:55 41.42197 -82.01272 3997 ft 103 kts 242°
2026-05-06 04:55 41.41843 -82.02102 3999 ft 102 kts 242°
2026-05-06 04:55 41.41496 -82.02914 3996 ft 101 kts 242°
2026-05-06 04:56 41.41148 -82.03729 4000 ft 100 kts 242°
2026-05-06 04:56 41.40801 -82.04540 4002 ft 100 kts 242°
2026-05-06 04:56 41.40459 -82.05339 4004 ft 100 kts 242°
2026-05-06 04:56 41.40116 -82.06142 4007 ft 99 kts 242°
2026-05-06 04:57 41.39773 -82.06944 4001 ft 98 kts 242°
2026-05-06 04:57 41.39434 -82.07735 4004 ft 98 kts 242°
2026-05-06 04:57 41.39097 -82.08522 4004 ft 99 kts 242°
2026-05-06 04:57 41.38755 -82.09321 4007 ft 100 kts 242°
2026-05-06 04:58 41.38411 -82.10126 4005 ft 100 kts 241°
2026-05-06 04:58 41.38073 -82.10915 4003 ft 98 kts 241°
2026-05-06 04:58 41.37735 -82.11702 3994 ft 98 kts 242°
2026-05-06 04:58 41.37398 -82.12488 3994 ft 98 kts 242°
2026-05-06 04:59 41.37061 -82.13275 3993 ft 97 kts 242°
2026-05-06 04:59 41.36729 -82.14050 3991 ft 96 kts 242°
2026-05-06 04:59 41.36398 -82.14822 3992 ft 95 kts 242°
2026-05-06 04:59 41.36072 -82.15581 3989 ft 95 kts 242°
2026-05-06 05:00 41.35733 -82.16338 3986 ft 95 kts 238°
2026-05-06 05:00 41.35335 -82.17046 3987 ft 95 kts 237°
2026-05-06 05:00 41.34949 -82.17749 3986 ft 95 kts 237°
2026-05-06 05:00 41.34564 -82.18471 3987 ft 95 kts 238°
2026-05-06 05:01 41.34198 -82.19193 3996 ft 95 kts 238°
2026-05-06 05:01 41.33830 -82.19933 3994 ft 96 kts 239°
2026-05-06 05:01 41.33587 -82.20425 3993 ft 96 kts 239°
2026-05-06 05:01 41.33186 -82.21141 3994 ft 97 kts 233°
2026-05-06 05:02 41.32746 -82.21817 3992 ft 97 kts 234°
2026-05-06 05:02 41.32310 -82.22502 3993 ft 97 kts 234°
2026-05-06 05:02 41.31882 -82.23179 3994 ft 97 kts 234°
2026-05-06 05:02 41.31449 -82.23866 3995 ft 97 kts 234°
2026-05-06 05:03 41.31013 -82.24558 3993 ft 97 kts 234°
2026-05-06 05:03 41.30866 -82.24792 3996 ft 98 kts 234°
2026-05-06 05:03 41.29573 -82.26850 3993 ft 98 kts 234°
2026-05-06 05:04 41.29134 -82.27548 3992 ft 98 kts 234°
2026-05-06 05:04 41.28701 -82.28237 3991 ft 98 kts 234°
2026-05-06 05:04 41.28262 -82.28936 3996 ft 99 kts 234°
2026-05-06 05:04 41.27818 -82.29643 3998 ft 100 kts 234°
2026-05-06 05:05 41.27368 -82.30358 3998 ft 100 kts 234°
2026-05-06 05:05 41.26919 -82.31071 3997 ft 100 kts 234°
2026-05-06 05:05 41.26472 -82.31780 3994 ft 101 kts 234°
2026-05-06 05:05 41.26021 -82.32498 3996 ft 101 kts 234°
2026-05-06 05:06 41.25571 -82.33212 3995 ft 100 kts 234°
2026-05-06 05:06 41.25276 -82.33681 3989 ft 99 kts 234°
2026-05-06 05:06 41.24831 -82.34387 3988 ft 99 kts 234°
2026-05-06 05:06 41.24392 -82.35084 3992 ft 99 kts 234°
2026-05-06 05:07 41.23797 -82.36028 3991 ft 99 kts 234°
2026-05-06 05:07 41.23503 -82.36495 3990 ft 100 kts 234°
2026-05-06 05:07 41.23055 -82.37206 3992 ft 100 kts 234°
2026-05-06 05:07 41.22607 -82.37916 3994 ft 102 kts 234°
2026-05-06 05:08 41.22147 -82.38647 3996 ft 103 kts 234°
2026-05-06 05:08 41.21685 -82.39378 3995 ft 103 kts 234°
2026-05-06 05:08 41.21223 -82.40111 3999 ft 103 kts 234°
2026-05-06 05:08 41.20765 -82.40836 3995 ft 103 kts 234°
2026-05-06 05:09 41.20303 -82.41568 3995 ft 103 kts 234°
2026-05-06 05:09 41.19841 -82.42299 3993 ft 103 kts 234°
2026-05-06 05:09 41.19384 -82.43022 3995 ft 103 kts 233°
2026-05-06 05:09 41.18923 -82.43751 3995 ft 100 kts 234°
2026-05-06 05:10 41.18483 -82.44447 3987 ft 97 kts 234°
2026-05-06 05:10 41.18052 -82.45128 3986 ft 94 kts 234°
2026-05-06 05:10 41.17638 -82.45783 3982 ft 93 kts 234°
2026-05-06 05:10 41.17225 -82.46435 3985 ft 92 kts 234°
2026-05-06 05:11 41.16816 -82.47081 3986 ft 91 kts 234°
2026-05-06 05:11 41.16408 -82.47725 3983 ft 91 kts 234°
2026-05-06 05:11 41.16003 -82.48365 3987 ft 92 kts 234°
2026-05-06 05:11 41.15589 -82.49020 3987 ft 92 kts 235°
2026-05-06 05:12 41.15174 -82.49676 3985 ft 92 kts 235°
2026-05-06 05:12 41.14765 -82.50321 3988 ft 92 kts 235°
2026-05-06 05:12 41.14352 -82.50973 3991 ft 92 kts 235°
2026-05-06 05:12 41.13936 -82.51630 3984 ft 90 kts 234°
2026-05-06 05:13 41.13546 -82.52246 3981 ft 86 kts 235°
2026-05-06 05:13 41.13164 -82.52847 3982 ft 83 kts 235°
2026-05-06 05:13 41.12796 -82.53429 3980 ft 82 kts 235°
2026-05-06 05:13 41.12429 -82.54009 3983 ft 82 kts 235°
2026-05-06 05:14 41.12067 -82.54581 3982 ft 82 kts 235°
2026-05-06 05:14 41.11698 -82.55163 3978 ft 82 kts 235°
2026-05-06 05:14 41.11327 -82.55749 3980 ft 82 kts 235°
2026-05-06 05:14 41.10960 -82.56326 3984 ft 83 kts 235°
2026-05-06 05:15 41.10583 -82.56922 3982 ft 85 kts 236°
2026-05-06 05:15 41.10197 -82.57529 3980 ft 86 kts 236°
2026-05-06 05:15 41.09815 -82.58132 3986 ft 86 kts 236°
2026-05-06 05:15 41.09427 -82.58742 3982 ft 85 kts 236°
2026-05-06 05:16 41.09048 -82.59339 3979 ft 85 kts 236°
2026-05-06 05:16 41.08667 -82.59939 3983 ft 85 kts 235°
2026-05-06 05:16 41.08289 -82.60534 3979 ft 85 kts 235°
2026-05-06 05:16 41.07908 -82.61134 3976 ft 85 kts 235°
2026-05-06 05:17 41.07527 -82.61733 3977 ft 84 kts 235°
2026-05-06 05:17 41.07153 -82.62322 3981 ft 85 kts 236°
2026-05-06 05:17 41.06772 -82.62921 3982 ft 84 kts 235°
2026-05-06 05:17 41.06404 -82.63498 3978 ft 82 kts 235°
2026-05-06 05:18 41.06037 -82.64076 3980 ft 81 kts 235°
2026-05-06 05:18 41.05670 -82.64653 3975 ft 82 kts 235°
2026-05-06 05:18 41.05302 -82.65230 3981 ft 82 kts 235°
2026-05-06 05:18 41.04938 -82.65802 3982 ft 82 kts 235°
2026-05-06 05:19 41.04568 -82.66384 3980 ft 82 kts 236°
2026-05-06 05:19 41.04195 -82.66971 3975 ft 83 kts 236°
2026-05-06 05:19 41.03820 -82.67559 3981 ft 83 kts 236°
2026-05-06 05:19 41.03450 -82.68140 3978 ft 83 kts 236°
2026-05-06 05:20 41.03079 -82.68722 3974 ft 83 kts 236°
2026-05-06 05:20 41.02711 -82.69299 3977 ft 83 kts 236°
2026-05-06 05:20 41.02339 -82.69883 3977 ft 83 kts 236°
2026-05-06 05:20 41.01966 -82.70470 3976 ft 83 kts 236°
2026-05-06 05:21 41.01591 -82.71057 3977 ft 83 kts 236°
2026-05-06 05:21 41.01222 -82.71637 3977 ft 83 kts 235°
2026-05-06 05:21 41.00847 -82.72223 3979 ft 83 kts 235°
2026-05-06 05:21 41.00474 -82.72808 3976 ft 83 kts 235°
2026-05-06 05:22 41.00101 -82.73392 3977 ft 83 kts 236°
2026-05-06 05:22 40.99731 -82.73974 3981 ft 84 kts 236°
2026-05-06 05:22 40.99348 -82.74574 3981 ft 86 kts 236°
2026-05-06 05:22 40.98958 -82.75184 3984 ft 86 kts 236°
2026-05-06 05:23 40.98568 -82.75796 3988 ft 87 kts 235°
2026-05-06 05:23 40.98175 -82.76414 3992 ft 93 kts 235°
2026-05-06 05:23 40.97303 -82.77777 3995 ft 100 kts 234°
2026-05-06 05:24 40.96845 -82.78492 3993 ft 102 kts 235°
2026-05-06 05:24 40.96389 -82.79206 3993 ft 103 kts 235°
2026-05-06 05:24 40.95926 -82.79930 3992 ft 103 kts 234°
2026-05-06 05:24 40.95459 -82.80660 3995 ft 105 kts 234°
2026-05-06 05:25 40.94977 -82.81415 3994 ft 108 kts 235°
2026-05-06 05:25 40.94486 -82.82184 3995 ft 110 kts 235°
2026-05-06 05:25 40.93994 -82.82953 3994 ft 110 kts 236°
2026-05-06 05:25 40.93495 -82.83734 3993 ft 112 kts 234°
2026-05-06 05:26 40.92997 -82.84510 3998 ft 112 kts 234°
2026-05-06 05:26 40.92487 -82.85306 3992 ft 113 kts 235°
2026-05-06 05:26 40.91980 -82.86097 3993 ft 115 kts 236°
2026-05-06 05:26 40.91460 -82.86911 3995 ft 116 kts 235°
2026-05-06 05:27 40.90938 -82.87725 3996 ft 116 kts 234°
2026-05-06 05:27 40.90420 -82.88533 3991 ft 116 kts 234°
2026-05-06 05:27 40.89896 -82.89348 3993 ft 116 kts 235°
2026-05-06 05:27 40.89374 -82.90161 3994 ft 115 kts 235°
2026-05-06 05:28 40.88852 -82.90975 4000 ft 116 kts 235°
2026-05-06 05:28 40.88337 -82.91779 3996 ft 116 kts 234°
2026-05-06 05:28 40.87810 -82.92600 3998 ft 117 kts 234°
2026-05-06 05:28 40.87638 -82.92868 3996 ft 117 kts 234°
2026-05-06 05:29 40.86163 -82.95170 3989 ft 117 kts 235°
2026-05-06 05:29 40.85643 -82.95981 3988 ft 117 kts 234°
2026-05-06 05:29 40.85117 -82.96801 3990 ft 117 kts 234°
2026-05-06 05:30 40.84586 -82.97628 3991 ft 119 kts 234°
2026-05-06 05:30 40.84045 -82.98469 3988 ft 120 kts 234°
2026-05-06 05:30 40.83573 -82.99376 3987 ft 120 kts 241°
2026-05-06 05:30 40.83114 -83.00303 3988 ft 120 kts 240°
2026-05-06 05:31 40.82654 -83.01214 3988 ft 121 kts 240°
2026-05-06 05:31 40.82183 -83.02135 3988 ft 121 kts 240°
2026-05-06 05:31 40.81710 -83.03056 3985 ft 120 kts 240°
2026-05-06 05:31 40.81236 -83.03979 3930 ft 125 kts 239°
2026-05-06 05:32 40.80743 -83.04941 3807 ft 131 kts 239°
2026-05-06 05:32 40.80222 -83.05953 3673 ft 133 kts 239°
2026-05-06 05:32 40.79704 -83.06959 3561 ft 134 kts 239°
2026-05-06 05:32 40.79178 -83.07980 3434 ft 134 kts 239°
2026-05-06 05:33 40.78650 -83.09005 3307 ft 135 kts 240°
2026-05-06 05:33 40.78117 -83.10037 3188 ft 137 kts 240°
2026-05-06 05:33 40.77587 -83.11068 3060 ft 137 kts 239°
2026-05-06 05:33 40.77048 -83.12112 2983 ft 136 kts 239°
2026-05-06 05:34 40.76521 -83.13129 2979 ft 132 kts 240°
2026-05-06 05:34 40.76013 -83.14115 2973 ft 130 kts 240°
2026-05-06 05:34 40.75510 -83.15088 2974 ft 127 kts 240°
2026-05-06 05:34 40.75014 -83.16051 2973 ft 128 kts 240°
2026-05-06 05:35 40.74510 -83.17027 2972 ft 128 kts 239°
2026-05-06 05:35 40.74006 -83.18002 2967 ft 127 kts 239°
2026-05-06 05:35 40.73516 -83.18946 2966 ft 123 kts 240°
2026-05-06 05:35 40.73045 -83.19858 2969 ft 119 kts 239°
2026-05-06 05:36 40.72736 -83.20455 2968 ft 118 kts 240°
2026-05-06 05:36 40.72274 -83.21349 2970 ft 115 kts 240°
2026-05-06 05:36 40.71825 -83.22216 2966 ft 113 kts 238°
2026-05-06 05:36 40.71379 -83.23077 2971 ft 115 kts 241°
2026-05-06 05:37 40.70931 -83.23943 2970 ft 115 kts 241°
2026-05-06 05:37 40.70480 -83.24816 2973 ft 115 kts 239°
2026-05-06 05:37 40.70021 -83.25701 2974 ft 117 kts 240°
2026-05-06 05:37 40.69566 -83.26579 2977 ft 119 kts 241°
2026-05-06 05:38 40.69092 -83.27496 2976 ft 122 kts 239°
2026-05-06 05:38 40.68613 -83.28418 2975 ft 120 kts 239°
2026-05-06 05:38 40.68044 -83.29222 2967 ft 122 kts 227°
2026-05-06 05:38 40.67424 -83.29964 2972 ft 119 kts 227°
2026-05-06 05:39 40.66810 -83.30728 2966 ft 123 kts 231°
2026-05-06 05:39 40.66198 -83.31492 2971 ft 119 kts 229°
2026-05-06 05:39 40.65600 -83.32241 2969 ft 120 kts 230°
2026-05-06 05:39 40.64996 -83.32996 2979 ft 119 kts 229°
2026-05-06 05:40 40.64391 -83.33760 2977 ft 120 kts 230°
2026-05-06 05:40 40.63796 -83.34507 2974 ft 115 kts 229°
2026-05-06 05:40 40.63214 -83.35236 2974 ft 116 kts 231°
2026-05-06 05:40 40.62634 -83.35965 2974 ft 114 kts 230°
2026-05-06 05:41 40.62059 -83.36688 2978 ft 119 kts 230°
2026-05-06 05:41 40.61457 -83.37443 2980 ft 118 kts 231°
2026-05-06 05:41 40.60866 -83.38189 2982 ft 116 kts 230°
2026-05-06 05:41 40.60274 -83.38928 2973 ft 117 kts 230°
2026-05-06 05:42 40.59698 -83.39652 2982 ft 115 kts 231°
2026-05-06 05:42 40.59123 -83.40372 2979 ft 111 kts 231°
2026-05-06 05:42 40.58573 -83.41060 2974 ft 109 kts 228°
2026-05-06 05:42 40.58023 -83.41748 2975 ft 107 kts 231°
2026-05-06 05:43 40.57482 -83.42427 2982 ft 108 kts 231°
2026-05-06 05:43 40.56938 -83.43113 2991 ft 110 kts 230°
2026-05-06 05:43 40.56389 -83.43811 2985 ft 111 kts 230°
2026-05-06 05:43 40.55828 -83.44524 2990 ft 113 kts 230°
2026-05-06 05:44 40.55262 -83.45252 2984 ft 113 kts 230°
2026-05-06 05:44 40.54697 -83.45984 2991 ft 116 kts 232°
2026-05-06 05:44 40.54123 -83.46728 2987 ft 115 kts 230°
2026-05-06 05:44 40.53540 -83.47453 2987 ft 117 kts 226°
2026-05-06 05:45 40.52897 -83.48111 2984 ft 116 kts 225°
2026-05-06 05:45 40.52304 -83.48789 2982 ft 113 kts 231°
2026-05-06 05:45 40.51751 -83.49521 2974 ft 111 kts 232°
2026-05-06 05:45 40.51209 -83.50235 2976 ft 111 kts 232°
2026-05-06 05:46 40.50670 -83.50951 2972 ft 109 kts 232°
2026-05-06 05:46 40.50139 -83.51620 2986 ft 103 kts 231°
2026-05-06 05:46 40.49626 -83.52287 2988 ft 105 kts 231°
2026-05-06 05:46 40.49102 -83.52965 2982 ft 108 kts 232°
2026-05-06 05:47 40.48559 -83.53676 2979 ft 112 kts 231°
2026-05-06 05:47 40.48006 -83.54411 2953 ft 116 kts 232°
2026-05-06 05:47 40.47439 -83.55128 2998 ft 113 kts 231°
2026-05-06 05:47 40.46871 -83.55884 2957 ft 112 kts 234°
2026-05-06 05:48 40.46460 -83.56726 2977 ft 108 kts 249°
2026-05-06 05:48 40.46114 -83.57593 2975 ft 108 kts 243°
2026-05-06 05:48 40.45651 -83.58406 2960 ft 116 kts 238°
2026-05-06 05:48 40.45182 -83.59207 2908 ft 111 kts 243°
2026-05-06 05:49 40.44762 -83.60054 2924 ft 110 kts 244°
2026-05-06 05:49 40.44368 -83.60929 2897 ft 112 kts 247°
2026-05-06 05:49 40.44003 -83.61813 2855 ft 113 kts 249°
2026-05-06 05:49 40.43642 -83.62719 2847 ft 112 kts 249°
2026-05-06 05:50 40.43289 -83.63580 2877 ft 101 kts 250°
2026-05-06 05:50 40.42989 -83.64296 2989 ft 83 kts 252°
2026-05-06 05:50 40.42664 -83.64957 2978 ft 88 kts 242°
2026-05-06 05:50 40.42323 -83.65492 3161 ft 65 kts 231°
2026-05-06 05:51 40.41833 -83.65697 3200 ft 94 kts 179°
2026-05-06 05:51 40.41247 -83.65417 3327 ft 89 kts 149°
2026-05-06 05:51 40.40638 -83.65350 3366 ft 88 kts 206°
2026-05-06 05:51 40.40261 -83.65832 3488 ft 71 kts 246°
2026-05-06 05:52 40.39948 -83.66455 3415 ft 88 kts 241°
2026-05-06 05:52 40.39655 -83.66942 3511 ft 64 kts 236°
2026-05-06 05:52 40.39405 -83.67446 3440 ft 66 kts 251°
2026-05-06 05:52 40.39179 -83.68000 3347 ft 72 kts 247°
2026-05-06 05:53 40.38933 -83.68610 3218 ft 81 kts 250°
2026-05-06 05:53 40.38695 -83.69374 2958 ft 92 kts 253°
2026-05-06 05:53 40.38448 -83.70130 2808 ft 87 kts 257°
2026-05-06 05:53 40.38234 -83.70880 2611 ft 85 kts 264°
2026-05-06 05:54 40.38192 -83.71592 2555 ft 68 kts 273°
2026-05-06 05:54 40.38002 -83.72102 2694 ft 60 kts 213°
2026-05-06 05:54 40.37552 -83.72314 2684 ft 79 kts 237°
2026-05-06 05:54 40.37350 -83.73083 2423 ft 98 kts 266°
2026-05-06 05:55 40.37243 -83.73910 2199 ft 86 kts 270°
2026-05-06 05:55 40.37281 -83.74661 1966 ft 79 kts 280°
2026-05-06 05:55 40.37371 -83.75383 1731 ft 82 kts 292°
2026-05-06 05:55 40.37531 -83.76065 1643 ft 79 kts 299°
2026-05-06 05:56 40.37715 -83.76739 1624 ft 77 kts 298°
2026-05-06 05:56 40.37928 -83.77387 1581 ft 77 kts 301°
2026-05-06 05:56 40.38118 -83.78027 1557 ft 80 kts 283°
2026-05-06 05:56 40.38109 -83.78775 1575 ft 82 kts 272°
2026-05-06 05:57 40.37923 -83.79490 1515 ft 87 kts 251°
2026-05-06 05:57 40.37713 -83.80257 1323 ft 90 kts 252°
2026-05-06 05:57 40.37494 -83.80998 1170 ft 83 kts 251°
2026-05-06 05:57 40.37315 -83.81629 1119 ft 63 kts 252°
2026-05-06 05:58 40.37190 -83.82091 1112 ft 46 kts 249°
2026-05-06 05:58 40.37126 -83.82301 1111 ft 17 kts 246°
2026-05-06 05:58 40.37066 -83.82341 1109 ft 9 kts 158°
2026-05-06 05:58 40.37022 -83.82321 1109 ft 0 kts 156°
2026-05-06 06:01 40.37010 -83.82307 1110 ft 5 kts 98°
2026-05-06 06:01 40.37021 -83.82237 1111 ft 10 kts 68°
2026-05-06 06:01 40.37052 -83.82133 1115 ft 14 kts 69°
2026-05-06 06:01 40.37087 -83.82007 1116 ft 14 kts 69°
2026-05-06 06:02 40.37117 -83.81904 1117 ft 10 kts 66°
2026-05-06 06:02 40.37092 -83.81856 1116 ft 6 kts 160°
2026-05-06 06:02 40.37057 -83.81845 1117 ft 4 kts 243°
2026-05-06 06:02 40.37069 -83.81866 1113 ft 4 kts 275°
2026-05-06 06:03 40.37067 -83.81883 1117 ft 1 kts 258°
2026-05-06 06:03 40.37067 -83.81884 1117 ft 0 kts 259°
2026-05-06 06:04 40.37067 -83.81886 1117 ft 0 kts 250°
2026-05-06 06:06 40.37067 -83.81885 1117 ft 0 kts 250°
2026-05-06 06:07 40.37067 -83.81886 1117 ft 0 kts 250°
2026-05-06 06:07 40.37067 -83.81885 1117 ft 0 kts 250°